Torna al catalogo

ONEWEB-0508

AttivoComunicazioniPO
NORAD 54126·PAYLOAD·🇬🇧 United Kingdom

Lanciato Oct 22, 2022 da Satish Dhawan Space Centre

Loading…

Prossimi Passaggi (prossime 24 ore)

TLE

AggiornatoSource: CelesTrak SupGP

Epoca: Sep 14, 2026, 16:03 UTC

1 54126C 22138P   26257.66925185 -.00002505  00000+0 -62656-2 0  2575
2 54126  87.9104 287.1478 0002013  84.1733 334.9812 13.19726818    15

Traccia ONEWEB-0508 in tempo reale con AllMySat

Download on the App Store